Concordia, KS

9:14 PM CDT on July 22, 2017 (GMT -0500)
Blosser Municipal

Weather History for KCNK - June, 2014

Change the Weather History Date:

Friday, June 6, 2014

  Actual Average Record
Temperature  
Mean Temperature 74 °F 70 °F  
Max Temperature 83 °F 82 °F 105 °F (1933)
Min Temperature 65 °F 59 °F 43 °F (1983)
Degree Days  
Heating Degree Days 0 1  
Month to date heating degree days 0 6  
Since 1 June heating degree days 0 6  
Since 1 July heating degree days 5758 5401  
Cooling Degree Days 9 6  
Month to date cooling degree days 58 33  
Year to date cooling degree days 233 122  
Since 1 June cooling degree days 58 33  
Growing Degree Days 23 (Base 50)    
Moisture  
Dew Point 65 °F    
Average Humidity 72    
Maximum Humidity 93    
Minimum Humidity 51    
Precipitation  
Precipitation 0.07 in 0.13 in 1.96 in (1947)
Month to date precipitation 2.53 0.81  
Year to date precipitation 8.36 10.80  
Snow  
Snow 0.00 in 0.00 in T in (1971)
Month to date snowfall 0.0 0.0  
Year to date snowfall 16.9 13.7  
Since 1 July snowfall 23.2 20.2  
Snow Depth 0.00 in    
Sea Level Pressure  
Sea Level Pressure 29.88 in    
Wind  
Wind Speed 10 mph (SE)    
Max Wind Speed 21 mph    
Max Gust Speed 23 mph    
Visibility 10 miles    
Events      
T = Trace of Precipitation, MM = Missing Value Source: NWS Daily Summary

Daily Weather History Graph

Daily Weather History Graph

Search for Another Location

Airport or City:

Trip Planner

Search our weather history database for the weather conditions in past years. The results will help you decide how hot, cold, wet, or windy it might be!

Date:

Astronomy

Jun. 06, 2014 Rise Set
Actual Time 6:03 AM CDT 8:55 PM CDT
Civil Twilight 5:31 AM CDT 9:27 PM CDT
Nautical Twilight 4:50 AM CDT 10:08 PM CDT
Astronomical Twilight 4:04 AM CDT 10:54 PM CDT
Moon 2:17 PM CDT (6/6) 1:54 AM CDT (6/6)
Length of Visible Light 15h 56m
Length of Day
14h 51m
First Quarter, 58% of the Moon is Illuminated
Jun 6
First Quarter
Jun 12
Full
Jun 19
Last Quarter
Jun 27
New
Jul 5
First Quarter

Hourly Weather History & Observations

Time (CDT) Temp. Heat Index Dew Point Humidity Pressure Visibility Wind Dir Wind Speed Gust Speed Precip Events Conditions
12:55 AM 66.9 °F - 64.0 °F 90% 29.88 in 10.0 mi SSE 4.6 mph - N/A   Clear
1:55 AM 66.9 °F - 64.0 °F 90% 29.88 in 10.0 mi SE 5.8 mph - N/A   Clear
2:55 AM 66.9 °F - 64.0 °F 90% 29.88 in 10.0 mi SSE 9.2 mph - N/A   Clear
3:55 AM 66.2 °F - 64.4 °F 94% 29.93 in 10.0 mi SSE 10.4 mph - N/A   Clear
4:55 AM 66.9 °F - 64.9 °F 93% 29.89 in 10.0 mi South 11.5 mph - N/A   Clear
5:55 AM 66.0 °F - 64.9 °F 96% 29.91 in 10.0 mi SSW 8.1 mph - N/A   Clear
6:55 AM 66.0 °F - 64.9 °F 96% 29.90 in 10.0 mi Calm Calm - N/A   Clear
7:55 AM 70.0 °F - 66.9 °F 90% 29.93 in 10.0 mi South 3.5 mph - N/A   Clear
8:55 AM 73.0 °F - 68.0 °F 84% 29.92 in 10.0 mi SSW 4.6 mph - N/A   Clear
9:55 AM 77.0 °F - 66.2 °F 69% 29.94 in 10.0 mi Calm Calm - N/A   Clear
10:55 AM 78.1 °F - 66.0 °F 66% 29.91 in 10.0 mi East 10.4 mph - N/A   Clear
11:55 AM 79.0 °F - 64.9 °F 62% 29.91 in 10.0 mi East 9.2 mph - N/A   Partly Cloudy
12:55 PM 80.1 °F 82.3 °F 66.9 °F 64% 29.91 in 10.0 mi SE 15.0 mph - N/A   Scattered Clouds
1:55 PM 80.1 °F 81.9 °F 64.9 °F 60% 29.90 in 10.0 mi ESE 11.5 mph 18.4 mph N/A   Scattered Clouds
2:55 PM 81.0 °F 81.9 °F 62.1 °F 52% 29.88 in 10.0 mi ESE 12.7 mph - N/A   Clear
3:55 PM 82.4 °F 83.4 °F 62.6 °F 51% 29.90 in 10.0 mi ESE 12.7 mph 21.9 mph N/A   Scattered Clouds
4:55 PM 82.0 °F 83.0 °F 62.1 °F 51% 29.82 in 10.0 mi SE 16.1 mph - N/A   Clear
5:55 PM 80.1 °F 81.5 °F 63.0 °F 56% 29.81 in 10.0 mi SE 15.0 mph - N/A   Clear
6:55 PM 80.1 °F 81.5 °F 63.0 °F 56% 29.83 in 10.0 mi SE 13.8 mph - N/A   Clear
7:55 PM 77.0 °F - 64.0 °F 64% 29.85 in 10.0 mi SE 10.4 mph - N/A   Mostly Cloudy
8:55 PM 73.9 °F - 64.9 °F 73% 29.81 in 10.0 mi East 6.9 mph - N/A   Partly Cloudy
9:55 PM 72.0 °F - 64.9 °F 78% 29.81 in 10.0 mi ESE 6.9 mph - N/A   Clear
10:55 PM 71.1 °F - 66.0 °F 84% 29.85 in 10.0 mi SE 10.4 mph - N/A   Scattered Clouds
11:55 PM 71.1 °F - 66.9 °F 87% 29.85 in 10.0 mi SSE 13.8 mph - N/A   Mostly Cloudy